Find Intelsat IS-20

NORAD ID: 38740 Int'l Des: 2012-043 Owner: INTELU Country: US operational
HEOCIRCULARGSOGEO

リアルタイム位置

3D地球を読み込み中...

Intelsat IS-20について

説明を読み込み中...

次回通過

Passes for default location (London). Set your location on the main map for personalized predictions.

高度履歴

Loading altitude history...

軌道要素

1 38740U 12043A 26105.88706049 -.00000042 00000-0 00000-0 0 9995
2 38740 0.0142 308.7642 0006222 73.0620 210.0741 1.00380911 50127
Epoch: Apr 15, 2026 • Age: 11 hours

現在のステータス

高度 35730.4 km
速度 3.08 km/s
衛星直下点 0.01°N, 68.71°E
打ち上げ日 Aug 2, 2012
運用期間 13.7 years
タイプ communications

技術仕様

分類 Payload
質量 6094.00 kg
乾燥質量 2989.00 kg
総質量 6094.00 kg
長さ 8.50 m
直径 3.20 m
スパン 32.40 m
形状 Box + 2 Pan
製造者 LOR
バスタイプ SSL-1300-O
フェーズステータス In Orbit
所有者/国 INTELU/US

Most Searched